User: anonymous   Login
Location: Unspecified
(0.0000°N, 0.0000°E)
Time: 03:09:18
(UTC+00:00)
Language:

AUBIESAT-1 - Orbit

View from above orbital plane
View from above orbital plane
View from above satellite
View from above satellite

Ground track
Ground track

The orbit data is extracted from the following two-line orbital elements,

1 37854U 11061E   15087.02148824  .00009252  00000-0  55292-3 0  9990
2 37854 101.7175 261.3060 0197210 307.8163 171.9059 14.96643469185072
Epoch (UTC): 28 March 2015 00:30:56
Eccentricity: 0.0197210
inclination: 101.7175°
perigee height: 440 km
apogee height: 714 km
right ascension of ascending node: 261.3060°
argument of perigee: 307.8163°
revolutions per day: 14.96643469
mean anomaly at epoch: 171.9059°
orbit number at epoch: 18507

The dashed part of the orbit path shows where the satellite is in the earth's shadow,  

DLR